This is the latest recevied weather packets stored in our database for station/object HA6IFZ-10. If no packets are shown the sender has not sent any weather packets the latest 10 day(s).
| Time | Temp. | Humidity | Pressure | Rain* | Wind** | Luminosity | Snow |
|---|---|---|---|---|---|---|---|
| 1777645081 | 16.67° C | 29% | 1032.8 hPa | - | - | - | - |
| 1777644180 | 16.67° C | 30% | 1032.7 hPa | - | - | - | - |
| 1777643280 | 17.22° C | 28% | 1032.9 hPa | - | - | - | - |
| 1777641686 | 17.22° C | 28% | 1032.9 hPa | - | - | - | - |
| 1777640786 | 17.22° C | 29% | 1033.2 hPa | - | - | - | - |
| 1777639886 | 17.78° C | 28% | 1033.3 hPa | - | - | - | - |
| 1777638985 | 17.22° C | 31% | 1033.4 hPa | - | - | - | - |
| 1777638085 | 17.78° C | 28% | 1033.4 hPa | - | - | - | - |
| 1777637185 | 16.67° C | 30% | 1033.7 hPa | - | - | - | - |
| 1777636284 | 17.22° C | 31% | 1033.8 hPa | - | - | - | - |
| 1777635385 | 16.11° C | 30% | 1034 hPa | - | - | - | - |
| 1777634484 | 16.67° C | 30% | 1034 hPa | - | - | - | - |
| 1777633587 | 16.11° C | 31% | 1034.2 hPa | - | - | - | - |
| 1777632687 | 16.11° C | 29% | 1034.4 hPa | - | - | - | - |
| 1777631787 | 16.11° C | 29% | 1034.4 hPa | - | - | - | - |
| 1777630887 | 16.67° C | 29% | 1034.3 hPa | - | - | - | - |
| 1777629987 | 16.11° C | 30% | 1034.5 hPa | - | - | - | - |
| 1777629087 | 15° C | 32% | 1034.7 hPa | - | - | - | - |
| 1777628186 | 15.56° C | 31% | 1034.7 hPa | - | - | - | - |
| 1777627286 | 16.11° C | 31% | 1034.9 hPa | - | - | - | - |
| 1777626386 | 15° C | 30% | 1034.9 hPa | - | - | - | - |
| 1777625486 | 15° C | 27% | 1035 hPa | - | - | - | - |
| 1777624586 | 15° C | 25% | 1035.1 hPa | - | - | - | - |
| 1777623686 | 15° C | 23% | 1035.1 hPa | - | - | - | - |
| 1777622786 | 16.11° C | 23% | 1035.1 hPa | - | - | - | - |
* Rain since midnight (hover to see other rain measurements)
** Current wind speed in m/s (hover to see current wind gust speed)